Location: ??????
(41.3747°N, 22.5491°E)
Time: 04:18:45
(UTC+00:00)

SL-08 R/B - Pass Details

Date: 01 December 2020
Orbit: 950 x 1018 km, 82.9° (Epoch: 20 January)

Event Time Altitude Azimuth Distance (km) Brightness Sun altitude
Rises 16:19:49 0° 354° (N) 3,646 7.4 -14.4°
Reaches altitude 10° 16:22:21 10° 357° (N) 2,691 6.7 -14.9°
Maximum altitude 16:28:28 69° 81° (E) 1,013 4.4 -16.0°
Drops below altitude 10° 16:34:32 10° 165° (SSE) 2,668 6.8 -17.1°
Sets 16:37:02 0° 167° (SSE) 3,613 7.5 -17.5°
